Weather History for KDLH - March, 2013

Change the Weather History Date:

Monday, March 18, 2013

  Actual Average Record
Temperature  
Mean Temperature 21 °F 27 °F  
Max Temperature 27 °F 35 °F 73 °F (2012)
Min Temperature 15 °F 18 °F -14 °F (1923)
Degree Days  
Heating Degree Days 44 38  
Month to date heating degree days 829 751  
Since 1 July heating degree days 7337 7618  
Cooling Degree Days 0 0  
Month to date cooling degree days 0 0  
Year to date cooling degree days 0 0  
Moisture  
Dew Point 18 °F    
Average Humidity 75    
Maximum Humidity 92    
Minimum Humidity 57    
Precipitation  
Precipitation 0.32 in 0.05 in 1.37 in (1922)
Month to date precipitation 1.57 0.81  
Year to date precipitation 4.12 2.58  
Snow  
Snow 5.00 in 0.40 in 8.60 in (1922)
Month to date snowfall 25.3 8.8  
Since 1 July snowfall 78.1 74.4  
Snow Depth 22.00 in    
Sea Level Pressure  
Sea Level Pressure 29.59 in    
Wind  
Wind Speed 16 mph (SSE)    
Max Wind Speed 28 mph    
Max Gust Speed 36 mph    
Visibility 3 miles    
Events Fog , Snow    
T = Trace of Precipitation, MM = Missing Value Source: NWS Daily Summary

Daily Weather History Graph

Daily Weather History Graph

Search for Another Location

Airport or City:

Trip Planner

Search our weather history database for the weather conditions in past years. The results will help you decide how hot, cold, wet, or windy it might be!

Date:

Astronomy

Mar. 18, 2013 Rise Set
Actual Time 7:15 AM CDT 7:19 PM CDT
Civil Twilight 6:44 AM CDT 7:49 PM CDT
Nautical Twilight 6:09 AM CDT 8:24 PM CDT
Astronomical Twilight 5:33 AM CDT 9:01 PM CDT
Moon 10:53 AM CDT (3/18) 1:39 AM CDT (3/18)
Length of Visible Light 13h 04m
Length of Day
12h 03m
Waxing Crescent, 41% of the Moon is Illuminated
Mar 18
Waxing Crescent
Mar 19
First Quarter
Mar 27
Full
Apr 2
Last Quarter
Apr 10
New

Hourly Weather History & Observations

Time (CDT) Temp. Windchill Dew Point Humidity Pressure Visibility Wind Dir Wind Speed Gust Speed Precip Events Conditions
12:55 AM 21.0 °F 9.9 °F 9.0 °F 60% 29.94 in 10.0 mi SE 10.4 mph - N/A   Overcast
1:55 AM 21.0 °F 8.1 °F 10.0 °F 63% 29.90 in 10.0 mi SE 13.8 mph - N/A   Overcast
2:55 AM 19.9 °F 5.7 °F 10.9 °F 68% 29.85 in 10.0 mi SE 16.1 mph - N/A   Overcast
3:55 AM 19.9 °F 6.2 °F 12.0 °F 71% 29.81 in 10.0 mi SE 15.0 mph 21.9 mph N/A   Overcast
4:55 AM 21.0 °F 8.1 °F 12.9 °F 71% 29.78 in 9.0 mi SE 13.8 mph - 0.00 in Snow Light Snow
5:22 AM 19.4 °F 5.5 °F 15.8 °F 86% 29.68 in 1.8 mi ESE 15.0 mph - 0.01 in Snow Light Snow
5:32 AM 19.4 °F 6.0 °F 15.8 °F 86% 29.67 in 0.8 mi SE 13.8 mph - 0.01 in Snow Light Snow
5:48 AM 19.4 °F 5.5 °F 17.6 °F 93% 29.67 in 0.5 mi ESE 15.0 mph - 0.03 in Fog , Snow Snow
5:55 AM 19.9 °F 6.2 °F 17.1 °F 89% 29.74 in 0.5 mi ESE 15.0 mph - 0.03 in Fog , Snow Snow
6:55 AM 21.0 °F 7.6 °F 17.1 °F 85% 29.71 in 0.8 mi ESE 15.0 mph - 0.06 in Snow Light Snow
7:08 AM 21.2 °F 6.8 °F 17.6 °F 86% 29.63 in 0.5 mi ESE 17.3 mph - 0.01 in Fog , Snow Light Snow
7:21 AM 21.2 °F 6.8 °F 17.6 °F 86% 29.63 in 0.8 mi ESE 17.3 mph - 0.01 in Snow Light Snow
7:46 AM 21.2 °F 6.0 °F 17.6 °F 86% 29.61 in 1.2 mi ESE 19.6 mph - 0.02 in Snow Light Snow
7:55 AM 21.0 °F 6.2 °F 18.0 °F 88% 29.69 in 1.5 mi ESE 18.4 mph 25.3 mph 0.02 in Snow Light Snow
8:03 AM 21.2 °F 5.6 °F 17.6 °F 86% 29.60 in 0.8 mi ESE 20.7 mph 25.3 mph 0.00 in Snow Light Snow
8:21 AM 21.2 °F 6.8 °F 17.6 °F 86% 29.59 in 0.8 mi ESE 17.3 mph - 0.01 in Snow Light Snow
8:42 AM 21.2 °F 6.8 °F 19.4 °F 93% 29.58 in 0.2 mi ESE 17.3 mph - 0.02 in Fog , Snow Snow
8:55 AM 21.9 °F 8.2 °F 19.0 °F 89% 29.65 in 0.5 mi ESE 16.1 mph - 0.03 in Fog , Snow Snow
9:12 AM 21.2 °F 6.4 °F 19.4 °F 93% 29.57 in 0.2 mi ESE 18.4 mph - 0.01 in Fog , Snow Snow
9:28 AM 21.2 °F 7.8 °F 19.4 °F 93% 29.56 in 0.5 mi ESE 15.0 mph - 0.03 in Fog , Snow Snow
9:55 AM 23.0 °F 9.6 °F 19.9 °F 88% 29.63 in 0.5 mi ESE 16.1 mph - 0.05 in Fog , Snow Light Snow
10:05 AM 23.0 °F 10.1 °F 19.4 °F 86% 29.55 in 0.5 mi ESE 15.0 mph - 0.00 in Fog , Snow Light Snow
10:33 AM 24.8 °F 12.4 °F 21.2 °F 86% 29.54 in 0.5 mi ESE 15.0 mph - 0.02 in Fog , Snow Light Snow
10:44 AM 24.8 °F 13.4 °F 21.2 °F 86% 29.54 in 0.5 mi ESE 12.7 mph - 0.03 in Fog , Snow Light Snow
10:55 AM 24.1 °F 11.5 °F 21.0 °F 88% 29.61 in 0.8 mi ESE 15.0 mph - 0.04 in Snow Light Snow
11:18 AM 24.8 °F 12.9 °F 21.2 °F 86% 29.52 in 0.2 mi SE 13.8 mph - 0.02 in Fog , Snow Snow
11:29 AM 24.8 °F 13.4 °F 21.2 °F 86% 29.52 in 0.5 mi SE 12.7 mph - 0.03 in Fog , Snow Light Snow
11:37 AM 24.8 °F 12.9 °F 21.2 °F 86% 29.52 in 0.5 mi SE 13.8 mph - 0.03 in Fog , Snow Snow
11:55 AM 26.1 °F 15.6 °F 21.9 °F 84% 29.58 in 0.5 mi SE 11.5 mph - 0.04 in Fog , Snow Snow
12:29 PM 26.6 °F 16.2 °F 23.0 °F 86% 29.50 in 1.0 mi SSE 11.5 mph - 0.02 in Snow Light Snow
12:37 PM 26.6 °F 16.8 °F 21.2 °F 80% 29.49 in 0.8 mi SSE 10.4 mph - 0.03 in Snow Light Snow
12:49 PM 26.6 °F 15.7 °F 21.2 °F 80% 29.49 in 0.8 mi SSE 12.7 mph - 0.03 in Snow Light Snow
12:51 PM 26.6 °F 16.2 °F 23.0 °F 86% 29.49 in 1.0 mi SSE 11.5 mph - 0.04 in Snow Light Snow
12:55 PM 27.0 °F 16.7 °F 23.0 °F 85% 29.56 in 1.0 mi South 11.5 mph - 0.04 in Snow Light Snow
1:19 PM 26.6 °F 15.2 °F 21.2 °F 80% 29.48 in 2.0 mi SSE 13.8 mph - 0.00 in Snow Light Snow
1:28 PM 26.6 °F 16.2 °F 21.2 °F 80% 29.48 in 4.0 mi SSE 11.5 mph - 0.00 in Snow Light Snow
1:55 PM 27.0 °F 16.7 °F 21.9 °F 81% 29.54 in 5.0 mi South 11.5 mph - 0.00 in Snow Light Snow
2:10 PM 26.6 °F 15.2 °F 21.2 °F 80% 29.47 in 2.5 mi South 13.8 mph - 0.00 in Snow Light Snow
2:36 PM 26.6 °F 15.7 °F 21.2 °F 80% 29.46 in 2.5 mi SSW 12.7 mph - 0.01 in Snow Light Snow
2:55 PM 27.0 °F 15.6 °F 21.9 °F 81% 29.52 in 2.5 mi SSW 13.8 mph - 0.01 in Snow Light Snow
3:02 PM 26.6 °F 16.2 °F 21.2 °F 80% 29.45 in 5.0 mi SSW 11.5 mph - 0.00 in Snow Light Snow
3:17 PM 26.6 °F 14.7 °F 23.0 °F 86% 29.45 in 5.0 mi SSW 15.0 mph - 0.00 in Snow Light Snow
3:55 PM 25.0 °F 12.2 °F 19.9 °F 81% 29.53 in 5.0 mi SW 16.1 mph - 0.00 in Snow Light Snow
4:10 PM 24.8 °F 12.4 °F 19.4 °F 80% 29.46 in 6.0 mi WSW 15.0 mph - 0.00 in Snow Light Snow
4:55 PM 23.0 °F 9.2 °F 16.0 °F 74% 29.55 in 7.0 mi WSW 17.3 mph - 0.00 in Snow Light Snow
5:55 PM 21.0 °F 7.1 °F 12.9 °F 71% 29.57 in 8.0 mi West 16.1 mph - 0.00 in Snow Light Snow
6:30 PM 19.4 °F 6.6 °F 12.2 °F 74% 29.49 in 2.0 mi WSW 12.7 mph - 0.00 in Snow Light Snow
6:42 PM 19.4 °F 6.6 °F 12.2 °F 74% 29.49 in 1.8 mi WSW 12.7 mph - 0.00 in Snow Light Snow
6:55 PM 19.0 °F 7.5 °F 12.9 °F 77% 29.57 in 1.8 mi WSW 10.4 mph - 0.00 in Snow Light Snow
7:21 PM 19.4 °F 7.2 °F 14.0 °F 80% 29.49 in 2.0 mi WSW 11.5 mph - 0.00 in Snow Light Snow
7:55 PM 19.0 °F 6.8 °F 14.0 °F 81% 29.57 in 2.5 mi WSW 11.5 mph - 0.00 in Snow Light Snow
8:08 PM 19.4 °F 6.0 °F 14.0 °F 80% 29.49 in 3.0 mi West 13.8 mph - 0.00 in Snow Light Snow
8:55 PM 21.0 °F 7.1 °F 16.0 °F 81% 29.57 in 4.0 mi West 16.1 mph - 0.00 in Snow Light Snow
9:08 PM 21.2 °F 7.3 °F 15.8 °F 80% 29.49 in 6.0 mi West 16.1 mph 25.3 mph 0.00 in Snow Light Snow
9:51 PM 19.4 °F 4.1 °F 15.8 °F 86% 29.50 in 2.5 mi WNW 18.4 mph 29.9 mph 0.00 in Snow Light Snow
9:55 PM 19.9 °F 4.3 °F 15.1 °F 81% 29.58 in 2.5 mi WNW 19.6 mph 27.6 mph 0.00 in Snow Light Snow
10:09 PM 19.4 °F 4.1 °F 14.0 °F 80% 29.51 in 1.8 mi WNW 18.4 mph 26.5 mph 0.00 in Snow Light Snow
10:55 PM 18.0 °F -0.2 °F 12.0 °F 78% 29.59 in 1.8 mi WNW 25.3 mph 33.4 mph 0.00 in Snow Light Snow
11:55 PM 17.1 °F -0.6 °F 10.9 °F 77% 29.60 in 1.5 mi WNW 23.0 mph 32.2 mph 0.00 in Snow Light Snow